Latest Weather Observations for Urandangi

IDQ60801

Issued at 9:13 pm EST Saturday 9 May 2026 (issued every 10 minutes, with the page automatically refreshed every 10 minutes)

About weather observations | Map of weather stations | Latest weather observations for QLD | Other Formats
Station Details ID: 037058 Name: URANDANGI AERODROME Lat: -21.60 Lon: 138.37 Height: 178.6 m
Data from the previous 72 hours. | See also: Recent months at Urandangi
Date/Time
EST
Temp
°C
App
Temp
°C
Dew
Point
°C
Rel
Hum
%
Delta-T
°C
Wind Press
QNH
hPa
Press
MSL
hPa
Rain since
9am
mm
Dir  Spd
km/h
Gust
km/h
Spd
kts
Gust
kts
09/09:00pm 16.6 - - - - SSE 11 13 6 7 1021.5 1021.0 0.0
09/08:30pm 16.2 - - - - S 11 13 6 7 1021.2 1020.7 0.0
09/08:00pm 17.3 - - - - S 11 13 6 7 1020.9 1020.4 0.0
09/07:30pm 17.4 - - - - S 11 13 6 7 1020.6 1020.1 0.0
09/07:00pm 19.0 - - - - S 11 15 6 8 1020.3 1019.8 0.0
09/06:30pm 20.5 - - - - S 11 17 6 9 1020.0 1019.5 0.0
09/06:00pm 22.4 - - - - SSE 15 22 8 12 1019.6 1019.1 0.0
09/05:30pm 23.6 - - - - SSE 20 30 11 16 1019.4 1018.9 0.0
09/05:00pm 24.4 - - - - SE 22 32 12 17 1019.2 1018.7 0.0
09/04:30pm 24.8 - - - - SSE 24 32 13 17 1019.1 1018.6 0.0
09/04:00pm 24.9 - - - - SSE 22 35 12 19 1019.1 1018.6 0.0
09/03:30pm 25.2 - - - - SSE 19 32 10 17 1019.1 1018.6 0.0
09/03:00pm 24.8 - - - - SE 20 28 11 15 1019.3 1018.8 0.0
09/02:30pm 23.7 - - - - SSE 22 32 12 17 1019.5 1019.0 0.0
09/02:00pm 23.2 - - - - SE 20 30 11 16 1019.9 1019.4 0.0
09/01:30pm 23.1 - - - - SE 20 32 11 17 1020.3 1019.8 0.0
09/01:00pm 23.9 - - - - SE 20 33 11 18 1020.8 1020.3 0.0
09/12:30pm 22.6 - - - - SE 22 32 12 17 1021.4 1020.9 0.0
09/12:00pm 21.4 - - - - SE 26 35 14 19 1021.7 1021.2 0.0
09/11:30am 21.3 - - - - SSE 24 33 13 18 1022.1 1021.6 0.0
09/11:00am 20.2 - - - - SSE 22 32 12 17 1022.6 1022.1 0.0
09/10:30am 17.9 - - - - SE 24 33 13 18 1023.0 1022.5 0.0
09/10:00am 17.5 - - - - SSE 26 35 14 19 1022.9 1022.4 0.0
09/09:30am 15.9 - - - - SSE 24 33 13 18 1022.7 1022.2 0.0
09/09:00am 14.6 - - - - SSE 24 32 13 17 1022.8 1022.3 0.0
09/08:30am 12.9 - - - - SSE 20 28 11 15 1022.6 1022.1 0.0
09/08:00am 11.1 - - - - SSE 19 24 10 13 1022.4 1021.9 0.0
09/07:30am 10.6 - - - - SSE 17 24 9 13 1022.0 1021.5 0.0
09/07:00am 10.5 - - - - SSE 17 24 9 13 1021.7 1021.2 0.0
09/06:30am 10.5 - - - - SSE 15 20 8 11 1021.4 1020.9 0.0
09/06:00am 10.5 - - - - SSE 15 20 8 11 1021.4 1020.9 0.0
09/05:30am 10.8 - - - - SSE 17 24 9 13 1021.3 1020.8 0.0
09/05:00am 11.2 - - - - SSE 17 24 9 13 1021.1 1020.6 0.0
09/04:30am 11.5 - - - - SSE 17 26 9 14 1021.1 1020.6 0.0
09/04:00am 12.1 - - - - SSE 20 28 11 15 1021.0 1020.5 0.0
09/03:30am 12.4 - - - - SSE 20 28 11 15 1021.0 1020.5 0.0
09/03:00am 12.7 - - - - SSE 19 26 10 14 1021.2 1020.7 0.0
09/02:30am 12.8 - - - - SSE 17 24 9 13 1021.3 1020.8 0.0
09/02:00am 13.1 - - - - SSE 17 22 9 12 1021.4 1020.9 0.0
09/01:30am 13.7 - - - - SSE 19 24 10 13 1021.6 1021.1 0.0
09/01:00am 14.0 - - - - SSE 19 30 10 16 1021.8 1021.3 0.0
09/12:30am 14.3 - - - - SSE 19 28 10 15 1021.9 1021.4 0.0
09/12:00am 14.6 - - - - SSE 17 24 9 13 1022.1 1021.6 0.0
 
Date/Time
EST
Temp
°C
App
Temp
°C
Dew
Point
°C
Rel
Hum
%
Delta-T
°C
Wind Press
QNH
hPa
Press
MSL
hPa
Rain since
9am
mm
Dir  Spd
km/h
Gust
km/h
Spd
kts
Gust
kts
08/11:30pm 14.1 - - - - S 13 15 7 8 1022.3 1021.8 0.0
08/11:00pm 15.4 - - - - SSE 17 24 9 13 1022.4 1021.9 0.0
08/10:30pm 15.9 - - - - SSE 19 24 10 13 1022.3 1021.8 0.0
08/10:00pm 15.8 - - - - SSE 17 22 9 12 1022.4 1021.9 0.0
08/09:30pm 16.1 - - - - SSE 17 26 9 14 1022.4 1021.9 0.0
08/09:00pm 16.1 - - - - SSE 13 17 7 9 1022.3 1021.8 0.0
08/08:30pm 17.0 - - - - SE 15 19 8 10 1022.1 1021.6 0.0
08/08:00pm 17.3 - - - - SSE 15 22 8 12 1021.7 1021.2 0.0
08/07:30pm 18.0 - - - - SSE 15 19 8 10 1021.4 1020.9 0.0
08/07:00pm 19.3 - - - - SSE 19 24 10 13 1020.9 1020.4 0.0
08/06:30pm 20.1 - - - - SSE 20 32 11 17 1020.5 1020.0 0.0
08/06:00pm 20.9 - - - - SSE 22 33 12 18 1020.1 1019.6 0.0
08/05:30pm 22.1 - - - - SSE 26 39 14 21 1019.9 1019.4 0.0
08/05:00pm 22.8 - - - - SSE 26 37 14 20 1019.8 1019.3 0.0
08/04:30pm 22.5 - - - - SSE 26 37 14 20 1019.6 1019.1 0.0
08/04:00pm 23.6 - - - - SSE 28 39 15 21 1019.4 1018.9 0.0
08/03:30pm 24.2 - - - - SSE 28 43 15 23 1019.5 1019.0 0.0
08/03:00pm 24.1 - - - - SSE 26 39 14 21 1019.5 1019.0 0.0
08/02:30pm 23.8 - - - - SSE 28 39 15 21 1019.7 1019.2 0.0
08/02:00pm 22.6 - - - - SSE 28 35 15 19 1020.1 1019.6 0.0
08/01:30pm 23.1 - - - - SSE 26 39 14 21 1020.6 1020.1 0.0
08/01:00pm 23.6 - - - - SSE 26 37 14 20 1020.9 1020.4 0.0
08/12:30pm 22.7 - - - - SSE 28 39 15 21 1021.4 1020.9 0.0
08/12:00pm 21.8 - - - - SE 28 41 15 22 1022.2 1021.7 0.0
08/11:30am 21.0 - - - - SE 28 37 15 20 1022.7 1022.2 0.0
08/11:00am 19.2 - - - - SE 30 37 16 20 1023.3 1022.9 0.0
08/10:30am 17.4 - - - - SSE 28 39 15 21 1023.3 1022.9 0.0
08/10:00am 17.9 - - - - SE 26 37 14 20 1023.4 1023.0 0.0
08/09:30am 16.8 - - - - SSE 26 39 14 21 1023.1 1022.6 0.0
08/09:00am 16.7 - - - - SSE 26 39 14 21 1022.9 1022.4 0.0
08/08:30am 15.6 - - - - SSE 26 37 14 20 1022.7 1022.2 0.0
08/08:00am 14.7 - - - - SSE 22 32 12 17 1022.6 1022.1 0.0
08/07:30am 13.9 - - - - SSE 19 30 10 16 1022.2 1021.7 0.0
08/07:00am 13.9 - - - - SSE 20 28 11 15 1022.0 1021.5 0.0
08/06:30am 14.1 - - - - SSE 22 32 12 17 1021.5 1021.0 0.0
08/06:00am 14.3 - - - - SSE 20 28 11 15 1021.3 1020.8 0.0
08/05:30am 14.6 - - - - SSE 19 28 10 15 1021.4 1020.9 0.0
08/05:00am 14.9 - - - - SSE 19 28 10 15 1021.2 1020.7 0.0
08/04:30am 15.4 - - - - SSE 20 30 11 16 1020.9 1020.4 0.0
08/04:00am 15.9 - - - - SSE 19 30 10 16 1020.9 1020.4 0.0
08/03:30am 16.4 - - - - SSE 19 24 10 13 1021.2 1020.7 0.0
08/03:00am 16.9 - - - - SSE 24 35 13 19 1020.8 1020.3 0.0
08/02:30am 17.3 - - - - SSE 24 37 13 20 1020.9 1020.4 0.0
08/02:00am 17.7 - - - - SSE 26 35 14 19 1020.9 1020.4 0.0
08/01:30am 17.8 - - - - SSE 24 33 13 18 1020.8 1020.3 0.0
08/01:00am 17.5 - - - - SSE 22 30 12 16 1020.6 1020.1 0.0
08/12:30am 17.2 - - - - S 17 26 9 14 1021.0 1020.5 0.0
08/12:00am 17.2 - - - - S 17 24 9 13 1021.0 1020.5 0.0
 
Date/Time
EST
Temp
°C
App
Temp
°C
Dew
Point
°C
Rel
Hum
%
Delta-T
°C
Wind Press
QNH
hPa
Press
MSL
hPa
Rain since
9am
mm
Dir  Spd
km/h
Gust
km/h
Spd
kts
Gust
kts
07/11:30pm 17.6 - - - - S 19 26 10 14 1021.4 1020.9 0.0
07/11:00pm 18.1 - - - - S 19 28 10 15 1021.2 1020.7 0.0
07/10:30pm 18.4 - - - - S 20 30 11 16 1021.5 1021.0 0.0
07/10:00pm 18.6 - - - - S 20 30 11 16 1021.6 1021.1 0.0
07/09:30pm 18.8 - - - - S 19 28 10 15 1021.4 1020.9 0.0
07/09:00pm 19.5 - - - - S 19 24 10 13 1021.3 1020.8 0.0
07/08:30pm 20.1 - - - - S 19 28 10 15 1021.0 1020.5 0.0
07/08:00pm 19.6 - - - - S 13 19 7 10 1020.9 1020.4 0.0
07/07:30pm 19.8 - - - - S 13 19 7 10 1020.3 1019.8 0.0
07/07:00pm 20.5 - - - - S 13 19 7 10 1020.0 1019.5 0.0
07/06:30pm 22.0 - - - - SSE 20 28 11 15 1019.5 1019.0 0.0
07/06:00pm 23.2 - - - - SSE 20 32 11 17 1019.1 1018.6 0.0
07/05:30pm 23.7 - - - - SSE 22 35 12 19 1019.0 1018.5 0.0
07/05:00pm 24.6 - - - - SSE 20 28 11 15 1018.7 1018.2 0.0
07/04:30pm 25.1 - - - - SSE 26 33 14 18 1018.6 1018.1 0.0
07/04:00pm 26.0 - - - - SSE 28 39 15 21 1018.4 1017.8 0.0
07/03:30pm 25.8 - - - - SE 26 39 14 21 1018.4 1017.8 0.0
07/03:00pm 26.2 - - - - SSE 28 39 15 21 1018.7 1018.2 0.0
07/02:30pm 26.0 - - - - SE 26 39 14 21 1018.9 1018.4 0.0
07/02:00pm 26.3 - - - - SSE 30 43 16 23 1019.2 1018.7 0.0
07/01:30pm 26.0 - - - - SE 30 43 16 23 1019.4 1018.9 0.0
07/01:00pm 25.4 - - - - SSE 30 44 16 24 1019.8 1019.3 0.0
07/12:30pm 25.3 - - - - SSE 30 44 16 24 1020.2 1019.7 0.0
07/12:00pm 24.5 - - - - SE 32 43 17 23 1020.7 1020.2 0.0
07/11:30am 23.6 - - - - SSE 32 41 17 22 1021.2 1020.7 0.0
07/11:00am 22.6 - - - - SSE 32 43 17 23 1021.3 1020.8 0.0
07/10:30am 21.5 - - - - SE 33 46 18 25 1021.6 1021.1 0.0
07/10:00am 20.4 - - - - SE 33 44 18 24 1021.6 1021.1 0.0
07/09:30am 19.3 - - - - SSE 32 43 17 23 1021.3 1020.8 0.0
07/09:00am 18.7 - - - - SSE 32 46 17 25 1021.1 1020.6 0.0
07/08:30am 17.3 - - - - SSE 28 37 15 20 1021.0 1020.5 0.0
07/08:00am 16.2 - - - - S 20 32 11 17 1020.9 1020.4 0.0
07/07:30am 14.9 - - - - SSE 19 28 10 15 1020.6 1020.1 0.0
07/07:00am 14.6 - - - - SSE 15 20 8 11 1020.3 1019.8 0.0
07/06:30am 14.7 - - - - SSE 15 20 8 11 1020.1 1019.6 0.0
07/06:00am 14.7 - - - - S 15 20 8 11 1019.9 1019.4 0.0
07/05:30am 14.3 - - - - S 11 17 6 9 1019.7 1019.2 0.0
07/05:00am 14.2 - - - - S 13 17 7 9 1019.5 1019.0 0.0
07/04:30am 14.4 - - - - S 13 20 7 11 1019.6 1019.1 0.0
07/04:00am 15.2 - - - - S 13 19 7 10 1019.7 1019.2 0.0
07/03:30am 15.6 - - - - S 15 19 8 10 1019.5 1019.0 0.0
07/03:00am 15.9 - - - - S 17 22 9 12 1019.6 1019.1 0.0
07/02:30am 16.0 - - - - S 17 26 9 14 1019.6 1019.1 0.0
07/02:00am 16.4 - - - - S 20 32 11 17 1019.7 1019.2 0.0
07/01:30am 16.6 - - - - S 19 24 10 13 1020.1 1019.6 0.0
07/01:00am 17.0 - - - - S 17 26 9 14 1020.0 1019.5 0.0
07/12:30am 17.9 - - - - S 20 26 11 14 1019.9 1019.4 0.0
07/12:00am 18.3 - - - - S 19 33 10 18 1020.0 1019.5 0.0
 
Date/Time
EST
Temp
°C
App
Temp
°C
Dew
Point
°C
Rel
Hum
%
Delta-T
°C
Wind Press
QNH
hPa
Press
MSL
hPa
Rain since
9am
mm
Dir  Spd
km/h
Gust
km/h
Spd
kts
Gust
kts
06/11:30pm 18.4 - - - - S 19 30 10 16 1019.7 1019.2 0.0
06/11:00pm 17.9 - - - - S 19 24 10 13 1019.9 1019.4 0.0
06/10:30pm 17.7 - - - - S 13 20 7 11 1020.3 1019.8 0.0
06/10:00pm 18.7 - - - - S 15 19 8 10 1020.2 1019.7 0.0
06/09:30pm 18.7 - - - - S 13 19 7 10 1020.0 1019.5 0.0

Other formats

Comma delimited format used in spreadsheet applications
http://www.bom.gov.au/fwo/IDQ60801/IDQ60801.94344.axf

JavaScript Object Notation format (JSON) in row-major order
http://www.bom.gov.au/fwo/IDQ60801/IDQ60801.94344.json

Data quality

Most of these data are generated automatically and are frequently updated. Quality checks on data are not normally performed. It is possible for incorrect values to appear. Refer to information at About Latest Weather Observations and please check the disclaimer before using these data.